Tracking 21476 objects as of 30-Sep-2020
HD Live streaming from Space Station
objects crossing your sky now

GALAXY 25 (TELSTAR 5)

Track GALAXY 25 (TELSTAR 5) now!
GALAXY 25 (TELSTAR 5) is classified as:


NORAD ID: 24812
Int'l Code: 1997-026A
Perigee: 35,777.5 km
Apogee: 35,809.5 km
Inclination: 2.2 °
Period: 1,436.1 minutes
Semi major axis: 42164 km
RCS: 43.2964 m2 (large)
Launch date: May 24, 1997
Source: United States (US)
Launch site: TYURATAM MISSILE AND SPACE COMPLEX (TTMTR)

24 C-band, 28 Ku-band; U.S., southern Canada, Mexico, Caribbean.
aabbcc
Your satellite tracking list
Your tracking list is empty




NASA's NSSDC Master Catalog

Two Line Element Set (TLE):
1 24812U 97026A   20273.50301358 +.00000138 +00000-0 +00000-0 0  9992
2 24812 002.1644 089.5095 0003796 139.6864 353.4882 01.00272705085453
Source of the keplerian elements: AFSPC